This demonstration page uses our WeatherBlox Daily Observations layout. Learn more.

Hourly Observations for January 23, 2015

Temp ( °F °C ) Dew Point ( °F °C ) Humidity (%) Winds ( mph kmh ) Pressure ( in mb ) Visibility ( mi km ) Precip ( " mm )
12:15 am 00:15 Clear 24 -4.5 17 -8.1 76 76 SSW 9 15 30.33 1027 10 16.0934 0 0
12:35 am 00:35 Clear 24 -4.5 17 -8.5 74 74 SSW 9 15 30.33 1027 10 16.0934 0 0
12:55 am 00:55 Clear 23 -4.8 17 -8.5 76 76 SSW 9 15 30.36 1028 10 16.0934 0 0
1:15 am 01:15 Clear 23 -5 17 -8.6 76 76 SW 7 11 30.36 1028 10 16.0934 0 0
1:35 am 01:35 Clear 24 -4.5 17 -8.5 74 74 SW 8 13 30.33 1027 10 16.0934 0 0
1:55 am 01:55 Clear 22 -5.3 16 -9 76 76 SW 8 13 30.3 1026 10 16.0934 0 0
2:15 am 02:15 Clear 24 -4.2 18 -8 75 75 WSW 7 11 30.3 1026 10 16.0934 0 0
2:35 am 02:35 Clear 25 -3.7 18 -8 72 72 WSW 8 13 30.3 1026 10 16.0934 0 0
2:55 am 02:55 Clear 25 -3.8 18 -8 73 73 WSW 9 15 30.3 1026 10 16.0934 0 0
3:15 am 03:15 Clear 24 -4.3 18 -7.7 77 77 WSW 8 13 30.3 1026 10 16.0934 0 0
3:35 am 03:35 Clear 25 -4.1 19 -7.5 77 77 SW 7 11 30.27 1025 10 16.0934 0 0
3:55 am 03:55 Clear 23 -4.9 18 -7.6 82 82 WSW 7 11 30.27 1025 10 16.0934 0 0
4:15 am 04:15 Clear 24 -4.7 19 -7.5 81 81 WSW 9 15 30.27 1025 10 16.0934 0 0
4:35 am 04:35 Clear 23 -4.8 18 -7.6 81 81 WSW 9 15 30.27 1025 10 16.0934 0 0
4:55 am 04:55 Clear 23 -5 18 -7.6 82 82 WSW 10 17 30.27 1025 10 16.0934 0 0
5:15 am 05:15 Clear 23 -5.1 18 -7.8 82 82 WSW 7 11 30.24 1024 10 16.0934 0 0
5:35 am 05:35 Clear 23 -5 18 -7.8 81 81 W 7 11 30.24 1024 10 16.0934 0 0
5:55 am 05:55 Clear 22 -5.6 17 -8.2 82 82 W 10 17 30.27 1025 10 16.0934 0 0
6:15 am 06:15 Clear 21 -6.2 17 -8.6 83 83 W 8 13 30.27 1025 10 16.0934 0 0
6:35 am 06:35 Clear 21 -6 17 -8.6 82 82 W 8 13 30.27 1025 10 16.0934 0 0
6:55 am 06:55 Clear 21 -6.3 16 -9 81 81 W 9 15 30.27 1025 10 16.0934 0 0
7:15 am 07:15 Clear 20 -6.7 16 -9 84 84 W 7 11 30.27 1025 10 16.0934 0 0
7:35 am 07:35 Clear 19 -7.1 15 -9.5 83 83 W 7 11 30.24 1024 10 16.0934 0 0
7:55 am 07:55 Sunny 19 -7 15 -9.4 83 83 W 10 17 30.24 1024 10 16.0934 0 0
8:15 am 08:15 Sunny 20 -6.8 15 -9.7 80 80 W 8 13 30.24 1024 10 16.0934 0 0
8:35 am 08:35 Sunny 21 -6 15 -9.4 77 77 WSW 5 7 30.24 1024 10 16.0934 0 0
8:55 am 08:55 Sunny 25 -4.1 17 -8.6 71 71 W 7 11 30.21 1023 10 16.0934 0 0
9:15 am 09:15 Sunny 27 -2.7 18 -7.7 69 69 W 8 13 30.15 1021 10 16.0934 0 0
9:35 am 09:35 Sunny 28 -2 20 -6.4 72 72 W 9 15 30.18 1022 10 16.0934 0 0
9:55 am 09:55 Sunny 32 -0.2 21 -6.2 64 64 WNW 13 20 30.18 1022 10 16.0934 0 0
10:15 am 10:15 Sunny 32 0 21 -6.1 64 64 WNW 10 17 30.18 1022 10 16.0934 0 0
10:35 am 10:35 Sunny 32 0 20 -6.4 62 62 WNW 10 17 30.18 1022 10 16.0934 0 0
10:55 am 10:55 Sunny 36 2.4 23 -5 59 59 WNW 10 17 30.15 1021 10 16.0934 0 0
11:15 am 11:15 Sunny 38 3.1 21 -6.2 51 51 WNW 8 13 30.15 1021 10 16.0934 0 0
11:35 am 11:35 Sunny 42 5.8 21 -6.3 42 42 NW 10 17 30.12 1020 10 16.0934 0 0
11:55 am 11:55 Mostly Cloudy 44 6.6 20 -6.5 39 39 NNW 10 17 30.06 1018 10 16.0934 0 0
12:15 pm 12:15 Partly Cloudy 46 7.9 21 -6.1 37 37 NNW 13 20 30.06 1018 10 16.0934 0 0
12:35 pm 12:35 Mostly Cloudy 45 7.2 22 -5.5 40 40 NNW 12 19 30.06 1018 10 16.0934 0 0
12:55 pm 12:55 Cloudy 47 8.3 23 -5.2 38 38 NNW 14 22 30.06 1018 10 16.0934 0 0
1:15 pm 13:15 Cloudy 47 8.6 24 -4.6 39 39 NW 8 13 30.03 1017 10 16.0934 0 0
1:35 pm 13:35 Cloudy 47 8.5 24 -4.3 40 40 NW 9 15 30.03 1017 10 16.0934 0 0
1:55 pm 13:55 Cloudy 47 8.6 24 -4.5 40 40 NNW 13 20 30.03 1017 10 16.0934 0 0
2:15 pm 14:15 Cloudy 49 9.2 25 -3.9 40 40 NNW 12 19 30.03 1017 10 16.0934 0 0
2:35 pm 14:35 Cloudy 48 9.1 25 -3.9 40 40 NW 15 24 30.03 1017 10 16.0934 0 0
2:55 pm 14:55 Mostly Cloudy 48 9 25 -4 40 40 NW 15 24 30.03 1017 10 16.0934 0 0
3:15 pm 15:15 Partly Cloudy 49 9.5 25 -4 39 39 NW 13 20 30 1016 10 16.0934 0 0
3:35 pm 15:35 Partly Cloudy 49 9.5 26 -3.6 40 40 NNW 10 17 30 1016 10 16.0934 0 0
3:55 pm 15:55 Mostly Cloudy 49 9.5 26 -3.2 41 41 NNW 13 20 30 1016 10 16.0934 0 0
4:15 pm 16:15 Cloudy 49 9.2 27 -3 43 43 NNW 16 26 30.03 1017 10 16.0934 0 0
4:35 pm 16:35 Cloudy 49 9.3 27 -3 42 42 N 10 17 30.06 1018 10 16.0934 0 0
4:55 pm 16:55 Mostly Cloudy 48 8.7 28 -2.5 46 46 N 14 22 30.06 1018 10 16.0934 0 0
5:15 pm 17:15 Mostly Cloudy 47 8.2 28 -2.2 48 48 N 15 24 30.06 1018 10 16.0934 0 0
5:35 pm 17:35 Cloudy 46 7.9 28 -2.2 49 49 NNW 16 26 30.06 1018 10 16.0934 0 0
5:55 pm 17:55 Cloudy 45 7.4 28 -2.1 51 51 NNW 12 19 30.09 1019 10 16.0934 0 0
6:15 pm 18:15 Cloudy 45 7.1 28 -2 53 53 NNW 13 20 30.09 1019 10 16.0934 0 0
6:35 pm 18:35 Cloudy 44 6.5 28 -2.1 55 55 NNW 12 19 30.09 1019 10 16.0934 0 0
6:55 pm 18:55 Mostly Cloudy 42 5.8 28 -2.3 56 56 NNW 10 17 30.12 1020 10 16.0934 0 0
7:15 pm 19:15 Mostly Cloudy 42 5.5 28 -2.2 58 58 NNW 10 17 30.15 1021 10 16.0934 0 0
7:35 pm 19:35 Partly Cloudy 41 4.9 28 -2.3 60 60 NNW 14 22 30.15 1021 10 16.0934 0 0
7:55 pm 19:55 Clear 40 4.5 28 -2.3 62 62 NNW 10 17 30.15 1021 10 16.0934 0 0
8:15 pm 20:15 Clear 38 3.1 27 -2.7 66 66 NNW 12 19 30.18 1022 10 16.0934 0 0
8:35 pm 20:35 Clear 37 2.8 27 -2.7 67 67 NNW 12 19 30.18 1022 10 16.0934 0 0
8:55 pm 20:55 Clear 36 2.1 27 -3 69 69 NNW 9 15 30.18 1022 10 16.0934 0 0
9:15 pm 21:15 Clear 36 2.1 27 -2.7 71 71 NNW 9 15 30.18 1022 10 16.0934 0 0
9:35 pm 21:35 Clear 34 1 26 -3.2 74 74 NW 9 15 30.18 1022 10 16.0934 0 0
9:55 pm 21:55 Clear 34 1.1 27 -2.8 76 76 WNW 8 13 30.18 1022 10 16.0934 0 0
10:15 pm 22:15 Clear 32 0 26 -3.5 78 78 WNW 8 13 30.21 1023 10 16.0934 0 0
10:35 pm 22:35 Clear 32 0.1 27 -2.8 81 81 NW 12 19 30.21 1023 10 16.0934 0 0
10:55 pm 22:55 Clear 33 0.7 27 -2.6 79 79 NW 10 17 30.18 1022 10 16.0934 0 0
11:15 pm 23:15 Clear 33 0.6 27 -2.8 78 78 NW 9 15 30.18 1022 10 16.0934 0 0
11:35 pm 23:35 Clear 33 0.6 27 -2.8 78 78 NW 10 17 30.18 1022 10 16.0934 0 0
11:55 pm 23:55 Clear 34 1.1 27 -2.7 76 76 NW 10 17 30.18 1022 10 16.0934 0 0

Powered by AerisWeather